Granite Falls, MN

5:00 PM CST on December 05, 2019 (GMT -0600)
Granite Falls

Weather History for KGDB - October, 2019

Change the Weather History Date:

Wednesday, October 2, 2019

  Actual Average (KMVE) Record (KMVE)
Temperature  
Mean Temperature 48 °F -  
Max Temperature 49 °F 70 °F 89 °F (1997)
Min Temperature 45 °F 40 °F 16 °F (1974)
Degree Days  
Heating Degree Days 18    
Moisture  
Dew Point 45 °F    
Average Humidity 90    
Maximum Humidity 97    
Minimum Humidity 81    
Precipitation  
Precipitation 0.21 in - - ()
Sea Level Pressure  
Sea Level Pressure 30.08 in    
Wind  
Wind Speed 11 mph (North)    
Max Wind Speed 16 mph    
Max Gust Speed 22 mph    
Visibility 7 miles    
Events Rain    
Averages and records for this station are not official NWS values.
T = Trace of Precipitation, MM = Missing Value Source: NWS Daily Summary

Daily Weather History Graph

Daily Weather History Graph

Search for Another Location

Airport or City:

Astronomy

Oct. 02, 2019 Rise Set
Actual Time 7:21 AM CDT 7:01 PM CDT
Civil Twilight 6:52 AM CDT 7:30 PM CDT
Nautical Twilight 6:18 AM CDT 8:04 PM CDT
Astronomical Twilight 5:43 AM CDT 8:38 PM CDT
Moon 11:58 AM CDT (10/2) 9:45 PM CDT (10/2)
Length of Visible Light 12h 38m
Length of Day
11h 40m
Waxing Crescent, 20% of the Moon is Illuminated
Oct 2
Waxing Crescent
Oct 5
First Quarter
Oct 13
Full
Oct 21
Last Quarter
Oct 27
New

Hourly Weather History & Observations

Time (CDT) Temp. Windchill Dew Point Humidity Pressure Visibility Wind Dir Wind Speed Gust Speed Precip Events Conditions
12:16 AM 50.5 °F - 44.8 °F 81% 30.07 in 10.0 mi North 11.5 mph 16.1 mph N/A   Overcast
12:35 AM 50.2 °F - 44.6 °F 81% 30.09 in 10.0 mi North 12.7 mph 17.3 mph N/A   Overcast
12:36 AM 50.2 °F - 44.6 °F 81% 30.09 in 10.0 mi North 12.7 mph 17.3 mph N/A   Overcast
12:55 AM 49.1 °F - 43.5 °F 81% 30.09 in 10.0 mi North 15.0 mph 21.9 mph N/A   Overcast
12:56 AM 49.1 °F - 43.5 °F 81% 30.09 in 10.0 mi North 16.1 mph 21.9 mph N/A   Overcast
1:15 AM 48.2 °F - 43.0 °F 82% 30.10 in 10.0 mi North 12.7 mph 16.1 mph N/A   Mostly Cloudy
1:20 AM 48.2 °F - 43.0 °F 82% 30.10 in 10.0 mi North 9.2 mph 16.1 mph N/A   Overcast
1:37 AM 48.0 °F - 43.2 °F 83% 30.11 in 10.0 mi North 10.4 mph - N/A   Overcast
1:55 AM 47.3 °F - 42.4 °F 83% 30.11 in 10.0 mi North 11.5 mph 16.1 mph N/A   Overcast
2:15 AM 47.3 °F - 42.3 °F 83% 30.11 in 10.0 mi North 13.8 mph 18.4 mph N/A   Overcast
2:36 AM 46.8 °F - 42.3 °F 84% 30.10 in 10.0 mi North 11.5 mph 17.3 mph N/A   Overcast
2:59 AM 46.4 °F 41.5 °F 42.1 °F 85% 30.10 in 10.0 mi North 10.4 mph - N/A   Overcast
3:17 AM 46.4 °F 41.1 °F 42.1 °F 85% 30.11 in 10.0 mi North 11.5 mph - N/A   Overcast
3:36 AM 46.4 °F 41.5 °F 42.3 °F 85% 30.11 in 10.0 mi North 10.4 mph - N/A   Overcast
3:55 AM 46.4 °F 41.5 °F 42.1 °F 85% 30.11 in 10.0 mi North 10.4 mph - N/A   Overcast
4:15 AM 46.4 °F 41.5 °F 42.1 °F 85% 30.12 in 10.0 mi North 10.4 mph - N/A   Overcast
4:37 AM 46.4 °F 41.9 °F 41.9 °F 84% 30.13 in 10.0 mi North 9.2 mph 16.1 mph N/A   Overcast
4:56 AM 46.4 °F 40.7 °F 41.9 °F 84% 30.13 in 10.0 mi North 12.7 mph - N/A   Overcast
5:15 AM 46.4 °F 40.7 °F 41.7 °F 84% 30.11 in 10.0 mi North 12.7 mph 17.3 mph N/A   Overcast
5:16 AM 46.4 °F 41.1 °F 41.7 °F 84% 30.11 in 10.0 mi North 11.5 mph 17.3 mph N/A   Overcast
5:35 AM 46.4 °F 41.1 °F 41.5 °F 83% 30.13 in 10.0 mi North 11.5 mph 17.3 mph N/A   Overcast
5:36 AM 46.4 °F 41.5 °F 41.5 °F 83% 30.13 in 10.0 mi North 10.4 mph 17.3 mph N/A   Overcast
5:59 AM 46.4 °F 40.7 °F 41.9 °F 84% 30.13 in 10.0 mi North 12.7 mph - N/A   Overcast
6:16 AM 46.4 °F 41.5 °F 41.9 °F 84% 30.11 in 10.0 mi North 10.4 mph - N/A   Overcast
6:36 AM 46.0 °F 41.4 °F 41.9 °F 85% 30.12 in 10.0 mi North 9.2 mph - N/A   Mostly Cloudy
6:55 AM 45.9 °F 41.2 °F 41.5 °F 85% 30.13 in 10.0 mi North 9.2 mph - N/A   Mostly Cloudy
7:15 AM 46.0 °F 40.6 °F 41.9 °F 85% 30.12 in 10.0 mi North 11.5 mph 18.4 mph N/A   Overcast
7:19 AM 46.0 °F 41.0 °F 41.7 °F 85% 30.11 in 10.0 mi North 10.4 mph 18.4 mph N/A   Overcast
7:38 AM 45.9 °F 40.4 °F 41.9 °F 86% 30.11 in 10.0 mi North 11.5 mph - N/A   Overcast
7:55 AM 46.4 °F 41.9 °F 41.9 °F 84% 30.12 in 10.0 mi North 9.2 mph - N/A   Overcast
8:15 AM 46.4 °F 40.4 °F 42.1 °F 85% 30.11 in 7.0 mi NNE 13.8 mph - N/A   Overcast
8:16 AM 46.4 °F 40.1 °F 42.1 °F 85% 30.11 in 7.0 mi NNE 15.0 mph - N/A   Overcast
8:35 AM 46.9 °F - 42.8 °F 86% 30.11 in 10.0 mi NNE 12.7 mph 18.4 mph N/A   Overcast
8:36 AM 47.1 °F - 42.8 °F 85% 30.11 in 10.0 mi NNE 11.5 mph 18.4 mph N/A   Overcast
8:58 AM 47.3 °F - 43.0 °F 85% 30.09 in 10.0 mi NE 10.4 mph 17.3 mph N/A   Overcast
9:17 AM 48.0 °F - 43.7 °F 85% 30.10 in 10.0 mi NNE 12.7 mph - N/A   Overcast
9:36 AM 48.2 °F - 43.7 °F 84% 30.12 in 7.0 mi NNE 10.4 mph 17.3 mph N/A   Overcast
9:55 AM 48.7 °F - 44.6 °F 86% 30.13 in 10.0 mi NNE 9.2 mph - N/A   Overcast
9:56 AM 48.7 °F - 44.6 °F 86% 30.13 in 10.0 mi North 10.4 mph - N/A   Overcast
10:15 AM 49.1 °F - 44.6 °F 84% 30.12 in 10.0 mi North 10.4 mph - N/A   Overcast
10:37 AM 49.1 °F - 44.4 °F 84% 30.13 in 10.0 mi North 11.5 mph - N/A   Overcast
10:55 AM 49.1 °F - 44.8 °F 85% 30.15 in 10.0 mi North 9.2 mph - N/A Rain Light Rain
11:15 AM 48.7 °F - 45.9 °F 90% 30.13 in 5.0 mi North 6.9 mph - 0.03 in Rain Rain
11:16 AM 48.6 °F - 45.9 °F 90% 30.13 in 5.0 mi North 6.9 mph - 0.03 in Rain Rain
11:35 AM 48.2 °F - 45.9 °F 92% 30.10 in 7.0 mi NNE 9.2 mph - 0.06 in Rain Light Rain
11:36 AM 48.2 °F - 45.9 °F 92% 30.10 in 7.0 mi NNE 10.4 mph - 0.06 in Rain Light Rain
11:58 AM 48.2 °F - 45.9 °F 92% 30.09 in 7.0 mi NNE 10.4 mph - 0.07 in Rain Light Rain
12:16 PM 48.7 °F - 46.6 °F 92% 30.09 in 10.0 mi NNE 9.2 mph - N/A Rain Rain
12:36 PM 49.1 °F - 46.9 °F 92% 30.09 in 10.0 mi NNE 9.2 mph - 0.01 in Rain Light Rain
12:55 PM 49.1 °F - 46.9 °F 92% 30.08 in 10.0 mi NE 8.1 mph - 0.01 in Rain Light Rain
1:15 PM 49.1 °F - 46.8 °F 92% 30.08 in 7.0 mi NE 10.4 mph 17.3 mph N/A Rain Rain
1:19 PM 49.1 °F - 46.8 °F 92% 30.08 in 7.0 mi NNE 10.4 mph 17.3 mph N/A   Drizzle
1:37 PM 49.1 °F - 46.8 °F 92% 30.07 in 10.0 mi NNE 12.7 mph 17.3 mph N/A   Light Drizzle
1:56 PM 49.1 °F - 46.8 °F 92% 30.06 in 7.0 mi NNE 11.5 mph - 0.01 in   Drizzle
2:15 PM 49.1 °F - 46.9 °F 92% 30.06 in 10.0 mi NNE 9.2 mph - N/A Rain Rain
2:16 PM 49.1 °F - 46.9 °F 92% 30.06 in 10.0 mi NE 9.2 mph - N/A Rain Rain
2:35 PM 49.1 °F - 46.9 °F 92% 30.05 in 7.0 mi NE 11.5 mph - N/A   Light Drizzle
2:36 PM 49.1 °F - 46.9 °F 92% 30.05 in 7.0 mi NE 10.4 mph - N/A   Light Drizzle
2:59 PM 49.1 °F - 46.9 °F 92% 30.04 in 7.0 mi NNE 11.5 mph - N/A   Overcast
3:16 PM 49.3 °F - 46.9 °F 92% 30.04 in 10.0 mi NNE 9.2 mph - N/A   Overcast
3:35 PM 49.1 °F - 46.9 °F 92% 30.03 in 5.0 mi NE 10.4 mph - N/A   Overcast
3:55 PM 49.1 °F - 46.9 °F 92% 30.02 in 3.0 mi NE 10.4 mph - N/A Rain Light Rain
3:56 PM 49.1 °F - 46.9 °F 92% 30.02 in 3.0 mi NE 11.5 mph - N/A Rain Light Rain
4:15 PM 49.1 °F - 47.3 °F 93% 30.06 in 3.0 mi North 4.6 mph - N/A Rain Light Rain
4:19 PM 49.1 °F - 47.3 °F 93% 30.06 in 2.5 mi North 4.6 mph - N/A Rain Light Rain
4:38 PM 48.9 °F - 47.5 °F 95% 30.04 in 2.0 mi NNE 10.4 mph 17.3 mph 0.06 in Rain Rain
4:55 PM 48.2 °F - 46.9 °F 95% 30.04 in 5.0 mi NNE 11.5 mph 16.1 mph 0.07 in Rain Rain
5:15 PM 48.7 °F - 47.5 °F 95% 30.03 in 10.0 mi NE 10.4 mph - 0.01 in   Light Drizzle
5:16 PM 48.7 °F - 47.5 °F 95% 30.03 in 10.0 mi NNE 10.4 mph - 0.01 in   Light Drizzle
5:35 PM 48.7 °F - 47.3 °F 95% 30.03 in 7.0 mi NE 8.1 mph - 0.01 in   Drizzle
5:58 PM 48.4 °F - 46.9 °F 95% 30.04 in 7.0 mi NNE 8.1 mph - 0.01 in   Drizzle
6:17 PM 48.6 °F - 47.3 °F 95% 30.04 in 3.0 mi NNE 6.9 mph - 0.01 in   Drizzle
6:36 PM 48.2 °F - 46.9 °F 95% 30.03 in 3.0 mi NNE 5.8 mph - 0.01 in   Drizzle
6:55 PM 48.2 °F - 46.9 °F 95% 30.03 in 4.0 mi North 6.9 mph - 0.02 in   Light Drizzle
6:56 PM 48.2 °F - 46.9 °F 95% 30.03 in 4.0 mi North 8.1 mph - 0.02 in   Light Drizzle
7:15 PM 48.2 °F - 46.9 °F 95% 30.03 in 3.0 mi NNE 3.5 mph - N/A Rain Light Rain
7:37 PM 48.2 °F - 47.3 °F 97% 30.04 in 4.0 mi North 4.6 mph - N/A   Drizzle
7:55 PM 48.2 °F - 47.3 °F 97% 30.05 in 3.0 mi NNW 5.8 mph - 0.01 in   Drizzle
8:15 PM 48.2 °F - 47.3 °F 97% 30.05 in 3.0 mi NNW 5.8 mph - N/A   Drizzle
8:16 PM 48.2 °F - 47.3 °F 97% 30.05 in 3.0 mi NNW 5.8 mph - N/A   Drizzle
8:35 PM 48.2 °F - 47.3 °F 97% 30.05 in 4.0 mi NNW 6.9 mph - 0.01 in   Light Drizzle
8:36 PM 48.2 °F - 47.3 °F 97% 30.05 in 4.0 mi NNW 6.9 mph - 0.01 in   Light Drizzle
8:59 PM 48.2 °F - 47.3 °F 97% 30.06 in 5.0 mi NNW 5.8 mph - 0.01 in   Light Drizzle
9:17 PM 48.2 °F - 47.3 °F 97% 30.06 in 5.0 mi NNW 6.9 mph - N/A   Light Drizzle
9:36 PM 47.8 °F - 46.9 °F 97% 30.06 in 3.0 mi NNW 4.6 mph - N/A   Light Drizzle
9:55 PM 47.7 °F - 46.8 °F 97% 30.06 in 3.0 mi NNW 6.9 mph - N/A   Overcast
10:15 PM 47.5 °F - 46.6 °F 97% 30.06 in 3.0 mi NNW 5.8 mph - N/A   Overcast
10:19 PM 47.5 °F - 46.6 °F 97% 30.06 in 3.0 mi NW 5.8 mph - N/A   Overcast
10:37 PM 47.5 °F - 46.6 °F 97% 30.05 in 3.0 mi NNW 5.8 mph - N/A   Overcast
10:56 PM 47.5 °F - 46.6 °F 97% 30.05 in 3.0 mi NW 5.8 mph - N/A   Overcast
11:15 PM 47.3 °F - 46.4 °F 97% 30.05 in 5.0 mi NW 5.8 mph - N/A   Overcast
11:16 PM 47.3 °F - 46.4 °F 97% 30.05 in 5.0 mi NW 5.8 mph - N/A   Overcast
11:35 PM 47.3 °F - 46.4 °F 97% 30.06 in 5.0 mi NW 4.6 mph - N/A   Overcast
11:36 PM 47.5 °F - 46.6 °F 97% 30.06 in 5.0 mi NW 5.8 mph - N/A   Overcast
11:58 PM 47.3 °F - 46.4 °F 97% 30.05 in 1.8 mi NW 5.8 mph - N/A   Overcast